Location: Unspecified
(0.0000°N, 0.0000°E)
Time: 10:35:59
(UTC+02:00)

Ariane H10-3 - Visible Passes

Search period start: 02 August 2014 00:00
Search period end: 12 August 2014 00:00
Orbit: 245 x 22574 km, 7.2° (Epoch: 31 July)

Date Brightness Start Highest point End Pass type
(mag) Time Alt. Az. Time Alt. Az. Time Alt. Az.
02 Aug 6.6 20:35:06 10° W 00:13:32 64° W 00:13:32 64° W visible
03 Aug 4.4 07:11:51 11° WNW 07:14:42 47° NNE 07:25:58 10° E visible
04 Aug 6.8 16:43:26 10° W 21:53:08 88° S 22:07:15 34° E visible
05 Aug 6.7 22:17:27 10° W 00:20:33 58° WNW 00:20:33 58° WNW visible
06 Aug 4.4 07:18:48 10° WNW 07:21:58 53° NNE 07:35:08 10° E visible
07 Aug 6.7 16:52:13 10° W 22:01:04 90° S 22:13:28 38° E visible
08 Aug 6.8 23:09:09 10° W 00:26:18 53° WNW 00:26:18 53° WNW visible
09 Aug 4.4 07:24:34 10° WNW 07:27:54 59° NNE 07:42:58 10° E visible
10 Aug 6.6 16:59:35 10° W 22:07:22 88° N 22:18:24 40° E visible
11 Aug 10.0 23:30:50 10° W 00:00:00 17° W 00:00:00 17° W visible
